CW1627 Weather Reports


Display with metric or nautical units.
time (UTC)temp
F
wind
direction
speed
MPH
gust
MPH
rain 1hr
in
rain 24hr
in
rain mn
in
humidity
%
barometer
mb
20260506230059 76 44 7.0 15.0 0.00 0.02 0.02 67 1009.6
20260506213057 81 156 2.0 13.0 0.00 0.02 0.02 69 1009.2
20260506210056 86 20 5.0 13.0 0.00 0.02 0.02 60 1009.3
20260506200054 89 242 0.0 7.0 0.00 0.02 0.02 58 1009.8
20260506193053 88 122 1.0 7.0 0.00 0.02 0.02 60 1009.6
20260506190052 86 169 2.0 6.0 0.00 0.02 0.02 64 1009.9
20260506180051 81 167 0.0 5.0 0.00 0.02 0.02 77 1010.6
20260506173050 79 69 0.0 5.0 0.00 0.02 0.02 82 1010.6
20260506170049 77 83 2.0 6.0 0.00 0.02 0.02 85 1010.8
20260506163048 77 74 4.0 5.0 0.00 0.02 0.02 87 1010.7
20260506160047 76 65 0.0 4.0 0.00 0.02 0.02 91 1010.5
20260506153046 75 48 0.0 3.0 0.02 0.02 0.02 93 1010.3
20260506150046 74 79 0.0 3.0 0.02 0.02 0.02 92 1009.8
20260506143045 75 77 0.0 2.0 0.00 0.00 0.00 89 1009.8
20260506140044 75 134 0.0 6.0 0.00 0.00 0.00 89 1009.2
20260506133043 75 143 0.0 6.0 0.00 0.00 0.00 90 1008.7
20260506130042 75 136 3.0 6.0 0.00 0.00 0.00 90 1008.4
20260506120040 75 108 0.0 6.0 0.00 0.00 0.00 90 1008.5
20260506110038 75 129 1.0 6.0 0.00 0.00 0.00 89 1008.6
20260506093036 75 202 1.0 9.0 0.00 0.00 0.00 88 1008.4
20260506090035 75 182 4.0 13.0 0.00 0.00 0.00 88 1008.2
20260506083034 75 158 3.0 12.0 0.00 0.00 0.00 88 1008.3
20260506073102 76 116 0.0 12.0 0.00 0.00 0.00 87 1008.5
20260506043057 77 144 2.0 10.0 0.00 0.00 0.00 85 1008.4
20260506040057 78 104 3.0 7.0 0.00 0.00 0.00 85 1008.1
20260506033055 78 161 2.0 11.0 0.00 0.00 0.00 84 1007.6
20260506030055 79 123 0.0 11.0 0.00 0.00 0.00 81 1007.3
20260506023054 81 109 7.0 11.0 0.00 0.00 0.00 78 1006.8
20260506020053 82 145 3.0 6.0 0.00 0.00 0.00 72 1006.6
20260506013052 83 70 2.0 7.0 0.00 0.00 0.00 71 1006.0
20260506010051 85 79 1.0 5.0 0.00 0.00 0.00 68 1005.9
20260506003050 86 158 0.0 4.0 0.00 0.00 0.00 65 1005.7
20260506000050 87 219 0.0 7.0 0.00 0.00 0.00 63 1005.6
20260505233048 90 143 0.0 5.0 0.00 0.00 0.00 58 1005.6